Content
SEND FEEDBACK

Daily
Averages
Monthly
Summary
United States of America

BERKELEY, MISSOURI


Home > North America > United States > Missouri
Elevation: 564 feet     Latitude: 38 45N     Longitude: 090 22W

WEATHER
 
SELECT A DAY
Number of Records: 203,490;   Date Range: 1/1/95 - 8/12/14
 
SHARE

PRINT THIS DATA

[ ← Previous Day ]
WEATHER ALMANAC - FEBRUARY 1, 2013
[ Next Day → ]
[ °C ]   °F
Weather ElementAverageHighLow
Temperature20.7 °F30 °F (9:51 pm)9 °F (6:51 am)
Dewpoint2 °F9 °F (9:51 pm)-2 °F (2:51 am)
Humidity45.5 %64 % (6:51 am)33 % (6:51 pm)
Barometer30.43 in30.55 in (8:51 am)30.27 in (11:51 pm)
Wind Speed8.3 mph18.4 mph (1:51 am)
Wind Gust26.5 mph (1:51 am)
Weather ElementAverage
Visibility10 mi
Wind DirectionSW (225.7 °)

Weather ElementTotal
Precipitation---
Heating Degree Days45.5 (Base 65)
Averaged from 23 records on February 1, 2013
WEATHER CONDITIONS BREAKOUT
WIND DIRECTION BREAKOUT
WEATHER BY HOUR - FEBRUARY 1, 2013
[ °C ]   °F
Local TimeTemperatureDewpointHumidityBarometerVisibilityWind DirectionWind SpeedGust SpeedPrecipitationEventsConditions
1:51 AM12.0 °F-0.9 °F56 %30.46 in10.0 miWNW (290°)18.4 mph26.5 mphPartly Cloudy
2:51 AM10.9 °F-2.0 °F56 %30.46 in10.0 miNW (310°)13.8 mph21.9 mphClear
3:51 AM10.0 °F-2.0 °F58 %30.46 in10.0 miNW (310°)8.1 mphClear
4:51 AM10.0 °F-0.9 °F61 %30.48 in10.0 miWNW (300°)8.1 mphClear
5:51 AM10.0 °F-0.9 °F61 %30.50 in10.0 miWNW (290°)11.5 mphClear
6:51 AM9.0 °F-0.9 °F64 %30.51 in10.0 miWNW (290°)4.6 mphClear
7:51 AM10.9 °F-0.9 °F59 %30.52 in10.0 miWest (270°)9.2 mphPartly Cloudy
8:51 AM12.9 °F0.0 °F56 %30.55 in10.0 miSW (230°)6.9 mphPartly Cloudy
9:51 AM15.1 °F0.0 °F51 %30.55 in10.0 miSW (230°)5.8 mphPartly Cloudy
10:51 AM19.0 °F-0.9 °F42 %30.53 in10.0 miWSW (250°)6.9 mphScattered Clouds
11:51 AM21.0 °F0.0 °F40 %30.52 in10.0 miWest (260°)5.8 mphPartly Cloudy
12:51 PM24.1 °F3.0 °F40 %30.49 in10.0 miWest (270°)11.5 mph18.4 mphPartly Cloudy
1:51 PM25.0 °F1.9 °F37 %30.45 in10.0 miCalmScattered Clouds
2:51 PM27.0 °F1.9 °F34 %30.42 in10.0 miWSW (240°)6.9 mphMostly Cloudy
3:51 PM28.0 °F3.0 °F34 %30.41 in10.0 miSW (220°)10.4 mphMostly Cloudy
4:51 PM28.0 °F3.0 °F34 %30.40 in10.0 miSW (220°)9.2 mphMostly Cloudy
5:51 PM28.0 °F3.0 °F34 %30.38 in10.0 miSSW (210°)5.8 mphOvercast
6:51 PM28.9 °F3.0 °F33 %30.37 in10.0 miSouth (170°)4.6 mphOvercast
7:51 PM28.4 °F5.0 °F37 %30.29 in10.0 miSE (140°)6.9 mphOvercast
8:51 PM28.9 °F6.1 °F38 %30.32 in10.0 miSouth (170°)9.2 mphOvercast
9:51 PM30.0 °F9.0 °F41 %30.31 in10.0 miSouth (170°)8.1 mphOvercast
10:51 PM30.0 °F9.0 °F41 %30.29 in10.0 miSouth (170°)9.2 mphOvercast
11:51 PM30.0 °F8.1 °F40 %30.27 in10.0 miSouth (180°)10.4 mphOvercast
Hourly data recorded from KSTL, located miles away from Berkeley, Missouri







STORIES FROM OUR PARTNERS